| time (UTC) | temp F | wind direction | speed knots | gust knots | rain 1hr in | rain 24hr in | rain mn in | humidity % | barometer mb |
| 20260508111421 | 70 | 227 | 0.0 | 0.0 | 0.05 | 0.17 | 0.18 | 97 | 1012.5 |
| 20260508110701 | 70 | 227 | 0.0 | 0.0 | 0.04 | 0.17 | 0.17 | 97 | 1012.8 |
| 20260508110201 | 70 | 227 | 0.0 | 0.0 | 0.04 | 0.17 | 0.16 | 97 | 1012.9 |
| 20260508110049 | 70 | 0 | 0.0 | 0.0 | 0.04 | 0.17 | 0.16 | 96 | 1013.1 |
| 20260508105701 | 70 | 227 | 0.0 | 0.0 | 0.04 | 0.13 | 0.15 | 97 | 1013.2 |
| 20260508105201 | 70 | 227 | 0.0 | 0.9 | 0.05 | 0.13 | 0.15 | 97 | 1013.4 |
| 20260508104701 | 70 | 227 | 0.0 | 0.9 | 0.05 | 0.13 | 0.15 | 97 | 1013.3 |
| 20260508104555 | 70 | 0 | 0.0 | 0.9 | 0.05 | 0.16 | 0.15 | 96 | 1013.6 |
| 20260508104200 | 71 | 256 | 0.0 | 0.0 | 0.05 | 0.13 | 0.15 | 97 | 1013.2 |
| 20260508103925 | 71 | 256 | 0.0 | 0.0 | 0.05 | 0.13 | 0.15 | 97 | 1013.1 |
| 20260508103202 | 71 | 256 | 0.0 | 1.7 | 0.05 | 0.13 | 0.15 | 97 | 1012.9 |
| 20260508103103 | 70 | 0 | 0.0 | 1.7 | 0.05 | 0.16 | 0.15 | 96 | 1013.1 |
| 20260508102703 | 71 | 256 | 0.0 | 1.7 | 0.05 | 0.13 | 0.15 | 97 | 1012.8 |
| 20260508102202 | 71 | 304 | 0.0 | 0.0 | 0.04 | 0.13 | 0.14 | 97 | 1012.6 |
| 20260508101702 | 71 | 304 | 0.0 | 0.0 | 0.04 | 0.13 | 0.14 | 97 | 1012.6 |
| 20260508101551 | 71 | 0 | 0.0 | 0.0 | 0.04 | 0.15 | 0.14 | 97 | 1012.8 |
| 20260508101202 | 71 | 304 | 0.0 | 0.0 | 0.03 | 0.13 | 0.13 | 97 | 1012.1 |
| 20260508100703 | 71 | 304 | 0.0 | 0.0 | 0.03 | 0.13 | 0.13 | 97 | 1012.2 |
| 20260508100202 | 71 | 304 | 0.0 | 0.0 | 0.02 | 0.13 | 0.12 | 97 | 1012.3 |
| 20260508100052 | 71 | 0 | 0.0 | 0.0 | 0.02 | 0.13 | 0.12 | 96 | 1012.7 |
| 20260508095703 | 71 | 304 | 0.0 | 0.9 | 0.01 | 0.11 | 0.11 | 97 | 1012.6 |
| 20260508095202 | 71 | 304 | 0.0 | 0.9 | 0.00 | 0.11 | 0.10 | 97 | 1013.0 |
| 20260508094702 | 71 | 132 | 0.0 | 0.0 | 0.00 | 0.11 | 0.10 | 97 | 1012.9 |
| 20260508094552 | 71 | 0 | 0.0 | 0.0 | 0.00 | 0.11 | 0.10 | 96 | 1013.2 |
| 20260508094151 | 71 | 132 | 0.0 | 0.0 | 0.00 | 0.11 | 0.10 | 97 | 1012.9 |
| 20260508093651 | 72 | 132 | 0.0 | 0.0 | 0.00 | 0.11 | 0.10 | 97 | 1013.0 |
| 20260508093144 | 72 | 132 | 0.0 | 0.0 | 0.00 | 0.11 | 0.10 | 97 | 1013.1 |
| 20260508093056 | 71 | 0 | 0.0 | 0.0 | 0.00 | 0.11 | 0.10 | 96 | 1013.2 |
| 20260508092637 | 72 | 132 | 0.0 | 0.0 | 0.00 | 0.11 | 0.10 | 97 | 1012.9 |
| 20260508092136 | 72 | 132 | 0.0 | 0.0 | 0.00 | 0.11 | 0.10 | 97 | 1012.8 |
| 20260508091636 | 72 | 132 | 0.0 | 0.0 | 0.00 | 0.11 | 0.10 | 97 | 1012.6 |
| 20260508091549 | 72 | 0 | 0.0 | 0.0 | 0.00 | 0.11 | 0.10 | 96 | 1012.7 |
| 20260508091130 | 72 | 132 | 0.0 | 0.0 | 0.00 | 0.11 | 0.10 | 97 | 1012.6 |
| 20260508090631 | 72 | 132 | 0.0 | 0.0 | 0.00 | 0.11 | 0.10 | 97 | 1012.4 |
| 20260508090131 | 72 | 132 | 0.0 | 0.0 | 0.00 | 0.11 | 0.10 | 97 | 1012.1 |
| 20260508090115 | 73 | 132 | 0.0 | 0.0 | 0.00 | 0.11 | 0.10 | 97 | 1012.1 |
| 20260508090051 | 72 | 0 | 0.0 | 0.0 | 0.00 | 0.11 | 0.10 | 96 | 1012.3 |
| 20260508085130 | 73 | 132 | 0.0 | 0.0 | 0.00 | 0.11 | 0.10 | 97 | 1012.2 |
| 20260508084630 | 73 | 185 | 0.0 | 0.0 | 0.00 | 0.11 | 0.10 | 97 | 1012.2 |
| 20260508084555 | 73 | 0 | 0.0 | 0.0 | 0.00 | 0.11 | 0.10 | 96 | 1012.3 |
| 20260508084130 | 73 | 185 | 0.0 | 0.0 | 0.00 | 0.11 | 0.10 | 97 | 1012.3 |
| 20260508083629 | 73 | 185 | 0.0 | 0.0 | 0.00 | 0.11 | 0.10 | 97 | 1012.4 |
| 20260508083129 | 73 | 185 | 0.0 | 0.0 | 0.00 | 0.11 | 0.10 | 97 | 1012.1 |
| 20260508083052 | 73 | 0 | 0.0 | 0.0 | 0.00 | 0.11 | 0.10 | 96 | 1012.4 |
| 20260508082630 | 74 | 185 | 0.0 | 0.0 | 0.00 | 0.11 | 0.10 | 97 | 1012.3 |
| 20260508082129 | 74 | 185 | 0.0 | 0.0 | 0.00 | 0.11 | 0.10 | 97 | 1012.5 |
| 20260508081629 | 74 | 185 | 0.0 | 0.0 | 0.00 | 0.11 | 0.10 | 97 | 1012.6 |
| 20260508081556 | 73 | 0 | 0.0 | 0.0 | 0.00 | 0.11 | 0.10 | 96 | 1012.8 |
| 20260508081129 | 74 | 185 | 0.0 | 0.0 | 0.00 | 0.11 | 0.10 | 97 | 1012.9 |
| 20260508080628 | 74 | 185 | 0.0 | 0.0 | 0.00 | 0.11 | 0.10 | 97 | 1013.2 |
| 20260508080130 | 74 | 185 | 0.0 | 0.0 | 0.00 | 0.11 | 0.10 | 97 | 1013.3 |
| 20260508080049 | 73 | 0 | 0.0 | 0.0 | 0.00 | 0.11 | 0.10 | 97 | 1013.4 |
| 20260508075629 | 74 | 185 | 0.0 | 0.0 | 0.00 | 0.11 | 0.10 | 97 | 1013.3 |
| 20260508075129 | 74 | 185 | 0.0 | 0.0 | 0.00 | 0.11 | 0.10 | 97 | 1013.1 |
| 20260508074629 | 74 | 185 | 0.0 | 0.0 | 0.00 | 0.11 | 0.10 | 97 | 1013.1 |
| 20260508074550 | 73 | 0 | 0.0 | 0.0 | 0.00 | 0.11 | 0.10 | 96 | 1013.2 |
| 20260508074147 | 74 | 185 | 0.0 | 0.0 | 0.00 | 0.11 | 0.10 | 97 | 1012.8 |
| 20260508074135 | 74 | 185 | 0.0 | 0.0 | 0.00 | 0.11 | 0.10 | 97 | 1013.0 |
| 20260508073130 | 74 | 185 | 0.0 | 0.0 | 0.00 | 0.11 | 0.10 | 97 | 1012.7 |
| 20260508073048 | 73 | 0 | 0.0 | 0.0 | 0.00 | 0.11 | 0.10 | 96 | 1012.9 |
| 20260508072630 | 74 | 185 | 0.0 | 0.0 | 0.01 | 0.11 | 0.10 | 97 | 1012.5 |
| 20260508072131 | 74 | 185 | 0.0 | 0.0 | 0.01 | 0.11 | 0.10 | 97 | 1012.6 |
| 20260508071631 | 74 | 185 | 0.0 | 0.0 | 0.02 | 0.11 | 0.10 | 97 | 1012.5 |
| 20260508071553 | 73 | 0 | 0.0 | 0.0 | 0.02 | 0.11 | 0.10 | 96 | 1012.8 |
| 20260508071131 | 73 | 185 | 0.0 | 0.0 | 0.03 | 0.11 | 0.10 | 97 | 1013.0 |
| 20260508070629 | 73 | 185 | 0.0 | 0.0 | 0.04 | 0.11 | 0.10 | 97 | 1013.3 |
| 20260508070129 | 73 | 185 | 0.0 | 1.7 | 0.05 | 0.11 | 0.10 | 97 | 1013.5 |
| 20260508070054 | 73 | 0 | 0.0 | 0.9 | 0.05 | 0.11 | 0.10 | 96 | 1013.7 |
| 20260508065629 | 73 | 185 | 0.0 | 1.7 | 0.07 | 0.05 | 0.10 | 97 | 1013.7 |
| 20260508065129 | 73 | 33 | 0.0 | 0.9 | 0.07 | 0.05 | 0.10 | 97 | 1013.6 |
| 20260508064628 | 73 | 252 | 0.0 | 0.9 | 0.08 | 0.05 | 0.10 | 97 | 1013.5 |
| 20260508064606 | 72 | 0 | 0.0 | 0.9 | 0.08 | 0.11 | 0.10 | 96 | 1013.7 |
| 20260508064128 | 73 | 269 | 0.0 | 0.9 | 0.08 | 0.05 | 0.10 | 97 | 1013.5 |
| 20260508063628 | 73 | 296 | 0.0 | 0.9 | 0.08 | 0.05 | 0.10 | 97 | 1013.7 |
| 20260508063129 | 73 | 294 | 0.0 | 0.0 | 0.09 | 0.05 | 0.10 | 97 | 1013.9 |
| 20260508063048 | 72 | 0 | 0.0 | 0.0 | 0.09 | 0.11 | 0.10 | 96 | 1014.0 |
| 20260508062850 | 73 | 294 | 0.0 | 0.0 | 0.08 | 0.05 | 0.09 | 96 | 1014.0 |
| 20260508062623 | 73 | 294 | 0.0 | 0.0 | 0.08 | 0.05 | 0.09 | 96 | 1013.8 |
| 20260508061629 | 73 | 294 | 0.0 | 0.0 | 0.07 | 0.05 | 0.08 | 96 | 1013.5 |
| 20260508061557 | 72 | 0 | 0.0 | 0.0 | 0.07 | 0.09 | 0.08 | 96 | 1013.8 |
| 20260508061128 | 73 | 294 | 0.0 | 0.0 | 0.06 | 0.05 | 0.07 | 96 | 1013.9 |
| 20260508060629 | 73 | 294 | 0.0 | 0.0 | 0.06 | 0.05 | 0.06 | 96 | 1014.3 |
| 20260508060131 | 73 | 294 | 0.0 | 0.0 | 0.05 | 0.05 | 0.04 | 96 | 1014.8 |
| 20260508060050 | 72 | 0 | 0.0 | 0.0 | 0.04 | 0.05 | 0.04 | 96 | 1015.1 |
| 20260508055919 | 73 | 294 | 0.0 | 0.0 | 0.03 | 0.01 | 0.03 | 96 | 1015.2 |
| 20260508055131 | 73 | 294 | 0.0 | 0.0 | 0.03 | 0.01 | 0.02 | 96 | 1015.6 |
| 20260508054631 | 73 | 294 | 0.0 | 0.0 | 0.02 | 0.01 | 0.02 | 96 | 1015.9 |
| 20260508054617 | 72 | 0 | 0.0 | 0.0 | 0.02 | 0.03 | 0.02 | 96 | 1016.2 |
| 20260508054130 | 73 | 294 | 0.0 | 0.0 | 0.02 | 0.01 | 0.02 | 96 | 1016.1 |
| 20260508053629 | 73 | 294 | 0.0 | 0.0 | 0.02 | 0.01 | 0.02 | 96 | 1016.1 |
| 20260508053129 | 72 | 294 | 0.0 | 0.0 | 0.01 | 0.01 | 0.01 | 96 | 1016.0 |
| 20260508053050 | 72 | 0 | 0.0 | 0.0 | 0.01 | 0.02 | 0.01 | 96 | 1016.3 |
| 20260508052629 | 72 | 294 | 0.0 | 0.0 | 0.01 | 0.01 | 0.01 | 96 | 1015.8 |
| 20260508052129 | 72 | 294 | 0.0 | 0.0 | 0.01 | 0.01 | 0.01 | 96 | 1015.5 |
| 20260508051629 | 72 | 294 | 0.0 | 3.5 | 0.01 | 0.01 | 0.01 | 96 | 1014.9 |
| 20260508051600 | 72 | 0 | 0.0 | 2.6 | 0.01 | 0.02 | 0.01 | 95 | 1015.0 |
| 20260508051354 | 72 | 294 | 0.0 | 3.5 | 0.01 | 0.01 | 0.01 | 96 | 1014.4 |
| 20260508050629 | 72 | 309 | 0.9 | 3.5 | 0.00 | 0.01 | 0.00 | 96 | 1013.6 |
| 20260508050129 | 72 | 134 | 0.0 | 0.9 | 0.01 | 0.01 | 0.00 | 96 | 1013.7 |
| 20260508050054 | 71 | 0 | 0.0 | 1.7 | 0.01 | 0.01 | 0.00 | 95 | 1014.0 |
| 20260508045629 | 72 | 333 | 0.0 | 2.6 | 0.01 | 0.00 | 0.01 | 96 | 1014.1 |
| 20260508045129 | 72 | 44 | 0.0 | 2.6 | 0.01 | 0.00 | 0.01 | 96 | 1014.1 |
| 20260508044629 | 72 | 107 | 0.0 | 1.7 | 0.01 | 0.00 | 0.01 | 95 | 1014.3 |
| 20260508044552 | 71 | 0 | 0.0 | 1.7 | 0.01 | 0.01 | 0.01 | 95 | 1014.5 |
| 20260508044129 | 72 | 240 | 0.0 | 1.7 | 0.01 | 0.00 | 0.01 | 95 | 1014.3 |
| 20260508043628 | 72 | 148 | 0.0 | 2.6 | 0.01 | 0.00 | 0.01 | 95 | 1014.0 |
| 20260508043131 | 72 | 289 | 0.0 | 2.6 | 0.01 | 0.00 | 0.01 | 94 | 1013.6 |
| 20260508043056 | 71 | 249 | 0.0 | 2.6 | 0.01 | 0.01 | 0.01 | 94 | 1013.7 |
| 20260508042631 | 72 | 176 | 0.0 | 1.7 | 0.01 | 0.00 | 0.01 | 94 | 1013.5 |
| 20260508042130 | 72 | 77 | 0.0 | 0.0 | 0.01 | 0.00 | 0.01 | 94 | 1013.9 |
| 20260508041630 | 72 | 229 | 0.0 | 0.9 | 0.01 | 0.00 | 0.01 | 93 | 1014.0 |
| 20260508041551 | 72 | 0 | 0.0 | 0.9 | 0.01 | 0.01 | 0.01 | 93 | 1014.2 |
| 20260508041130 | 72 | 156 | 0.0 | 0.9 | 0.01 | 0.00 | 0.01 | 93 | 1013.9 |
| 20260508040629 | 72 | 27 | 0.0 | 0.0 | 0.01 | 0.00 | 0.01 | 92 | 1014.4 |
| 20260508040351 | 72 | 27 | 0.0 | 0.0 | 0.00 | 0.00 | 0.00 | 92 | 1014.6 |
| 20260508040055 | 72 | 0 | 0.0 | 1.7 | 0.00 | 0.00 | 0.00 | 91 | 1014.6 |
| 20260508035629 | 73 | 27 | 0.0 | 0.9 | 0.00 | 0.00 | 0.00 | 91 | 1014.3 |
| 20260508035129 | 73 | 27 | 0.0 | 0.9 | 0.00 | 0.00 | 0.00 | 91 | 1014.1 |
| 20260508034629 | 73 | 274 | 0.0 | 0.0 | 0.00 | 0.00 | 0.00 | 91 | 1014.1 |
| 20260508034549 | 72 | 0 | 0.0 | 0.9 | 0.00 | 0.00 | 0.00 | 90 | 1014.4 |
| 20260508034128 | 73 | 274 | 0.0 | 2.6 | 0.00 | 0.00 | 0.00 | 91 | 1014.3 |
| 20260508033629 | 73 | 86 | 0.0 | 2.6 | 0.00 | 0.00 | 0.00 | 90 | 1014.5 |
| 20260508033129 | 73 | 259 | 0.0 | 1.7 | 0.00 | 0.00 | 0.00 | 90 | 1014.4 |
| 20260508033048 | 72 | 0 | 0.0 | 1.7 | 0.00 | 0.00 | 0.00 | 90 | 1014.5 |
| 20260508032629 | 73 | 61 | 0.0 | 1.7 | 0.00 | 0.00 | 0.00 | 90 | 1014.3 |
| 20260508032129 | 72 | 268 | 0.0 | 1.7 | 0.00 | 0.00 | 0.00 | 90 | 1014.6 |
| 20260508032116 | 72 | 81 | 0.0 | 3.5 | 0.00 | 0.00 | 0.00 | 90 | 1014.6 |
| 20260508031556 | 72 | 0 | 0.0 | 3.5 | 0.00 | 0.00 | 0.00 | 90 | 1014.7 |
| 20260508031128 | 72 | 89 | 0.0 | 3.5 | 0.00 | 0.00 | 0.00 | 90 | 1014.2 |
| 20260508030628 | 72 | 276 | 0.0 | 2.6 | 0.00 | 0.00 | 0.00 | 90 | 1014.4 |
| 20260508030131 | 72 | 110 | 0.0 | 5.2 | 0.00 | 0.00 | 0.00 | 90 | 1014.3 |
| 20260508030052 | 72 | 0 | 0.0 | 4.3 | 0.00 | 0.00 | 0.00 | 89 | 1014.5 |
| 20260508025625 | 72 | 56 | 0.0 | 5.2 | 0.00 | 0.00 | 0.00 | 90 | 1014.0 |
| 20260508025125 | 72 | 252 | 0.0 | 5.2 | 0.00 | 0.00 | 0.00 | 90 | 1014.0 |
| 20260508024617 | 72 | 9 | 0.0 | 7.0 | 0.00 | 0.00 | 0.00 | 90 | 1013.9 |
| 20260508024544 | 72 | 0 | 0.0 | 9.6 | 0.00 | 0.00 | 0.00 | 89 | 1014.0 |
| 20260508024104 | 72 | 117 | 0.9 | 7.0 | 0.00 | 0.00 | 0.00 | 90 | 1013.7 |
| 20260508023604 | 73 | 143 | 0.0 | 5.2 | 0.00 | 0.00 | 0.00 | 90 | 1013.7 |
| 20260508023103 | 73 | 188 | 0.0 | 5.2 | 0.00 | 0.00 | 0.00 | 89 | 1013.8 |
| 20260508023050 | 72 | 0 | 0.0 | 5.2 | 0.00 | 0.00 | 0.00 | 89 | 1014.0 |
| 20260508022603 | 73 | 38 | 0.0 | 3.5 | 0.00 | 0.00 | 0.00 | 89 | 1014.1 |
| 20260508022103 | 73 | 231 | 0.0 | 4.3 | 0.00 | 0.00 | 0.00 | 88 | 1014.0 |
| 20260508021603 | 73 | 187 | 0.0 | 4.3 | 0.00 | 0.00 | 0.00 | 88 | 1014.1 |
| 20260508021559 | 73 | 0 | 0.0 | 4.3 | 0.00 | 0.00 | 0.00 | 87 | 1014.3 |
| 20260508021102 | 73 | 321 | 0.0 | 3.5 | 0.00 | 0.00 | 0.00 | 87 | 1014.0 |
| 20260508020602 | 73 | 65 | 0.0 | 2.6 | 0.00 | 0.00 | 0.00 | 87 | 1013.9 |
| 20260508020048 | 73 | 0 | 0.0 | 1.7 | 0.00 | 0.00 | 0.00 | 86 | 1014.3 |
| 20260508015603 | 73 | 278 | 0.0 | 1.7 | 0.00 | 0.00 | 0.00 | 87 | 1013.9 |
| 20260508015102 | 74 | 4 | 0.0 | 2.6 | 0.00 | 0.00 | 0.00 | 87 | 1013.7 |
| 20260508014602 | 74 | 4 | 0.0 | 7.8 | 0.00 | 0.00 | 0.00 | 87 | 1013.6 |
| 20260508014548 | 73 | 0 | 0.0 | 7.8 | 0.00 | 0.00 | 0.00 | 86 | 1013.8 |
| 20260508014325 | 74 | 333 | 0.0 | 7.8 | 0.00 | 0.00 | 0.00 | 87 | 1013.5 |
| 20260508013602 | 74 | 96 | 0.9 | 5.2 | 0.00 | 0.00 | 0.00 | 87 | 1013.6 |
| 20260508013102 | 74 | 252 | 0.0 | 7.0 | 0.00 | 0.00 | 0.00 | 87 | 1013.6 |
| 20260508013050 | 73 | 0 | 0.0 | 7.0 | 0.00 | 0.00 | 0.00 | 86 | 1013.8 |
| 20260508012612 | 74 | 347 | 0.0 | 6.1 | 0.00 | 0.00 | 0.00 | 87 | 1013.4 |
| 20260508012603 | 74 | 243 | 0.0 | 7.0 | 0.00 | 0.00 | 0.00 | 87 | 1013.5 |
| 20260508011602 | 74 | 212 | 0.0 | 6.1 | 0.00 | 0.00 | 0.00 | 86 | 1013.4 |
| 20260508011554 | 74 | 15 | 0.0 | 4.3 | 0.00 | 0.00 | 0.00 | 86 | 1013.6 |
| 20260508011102 | 74 | 307 | 0.0 | 5.2 | 0.00 | 0.00 | 0.00 | 86 | 1013.5 |
| 20260508010601 | 74 | 113 | 0.9 | 5.2 | 0.00 | 0.00 | 0.00 | 85 | 1013.3 |
| 20260508010351 | 74 | 235 | 0.0 | 6.1 | 0.00 | 0.00 | 0.00 | 85 | 1013.0 |
| 20260508010049 | 74 | 0 | 0.0 | 5.2 | 0.00 | 0.00 | 0.00 | 85 | 1013.3 |
| 20260508005601 | 74 | 248 | 0.0 | 6.1 | 0.00 | 0.00 | 0.00 | 85 | 1012.8 |
| 20260508005101 | 74 | 110 | 0.0 | 5.2 | 0.00 | 0.00 | 0.00 | 85 | 1012.6 |
| 20260508004601 | 75 | 21 | 0.0 | 5.2 | 0.00 | 0.00 | 0.00 | 85 | 1012.7 |
| 20260508004550 | 74 | 0 | 0.0 | 1.7 | 0.00 | 0.00 | 0.00 | 84 | 1012.9 |
| 20260508004101 | 75 | 70 | 0.0 | 5.2 | 0.00 | 0.00 | 0.00 | 85 | 1012.8 |
| 20260508003601 | 75 | 221 | 0.0 | 6.1 | 0.00 | 0.00 | 0.00 | 85 | 1012.6 |
| 20260508003101 | 75 | 273 | 0.0 | 6.1 | 0.00 | 0.00 | 0.00 | 84 | 1012.7 |
| 20260508003049 | 75 | 167 | 0.0 | 5.2 | 0.00 | 0.00 | 0.00 | 83 | 1012.9 |
| 20260508002603 | 75 | 126 | 0.0 | 4.3 | 0.00 | 0.00 | 0.00 | 83 | 1013.0 |
| 20260508002102 | 76 | 124 | 0.0 | 4.3 | 0.00 | 0.00 | 0.00 | 83 | 1013.0 |
| 20260508001818 | 76 | 156 | 0.0 | 0.0 | 0.00 | 0.00 | 0.00 | 83 | 1013.1 |
| 20260508001547 | 75 | 0 | 0.0 | 1.7 | 0.00 | 0.00 | 0.00 | 82 | 1013.3 |
| 20260508001047 | 76 | 84 | 0.0 | 1.7 | 0.00 | 0.00 | 0.00 | 83 | 1013.1 |
| 20260508000538 | 76 | 322 | 0.0 | 5.2 | 0.00 | 0.00 | 0.00 | 83 | 1012.8 |
| 20260508000105 | 75 | 0 | 0.0 | 7.8 | 0.00 | 0.00 | 0.00 | 82 | 1012.9 |
| 20260508000035 | 76 | 224 | 0.9 | 5.2 | 0.00 | 0.00 | 0.00 | 82 | 1012.7 |
| 20260507235536 | 76 | 288 | 0.9 | 5.2 | 0.00 | 0.00 | 0.00 | 82 | 1012.6 |
| 20260507235034 | 76 | 289 | 0.0 | 5.2 | 0.00 | 0.00 | 0.00 | 82 | 1012.3 |
| 20260507234550 | 76 | 342 | 0.0 | 5.2 | 0.00 | 0.00 | 0.00 | 80 | 1012.5 |
| 20260507234534 | 77 | 176 | 0.0 | 5.2 | 0.00 | 0.00 | 0.00 | 81 | 1012.3 |
| 20260507234035 | 77 | 331 | 0.0 | 2.6 | 0.00 | 0.00 | 0.00 | 80 | 1012.4 |
| 20260507233535 | 77 | 70 | 0.0 | 2.6 | 0.00 | 0.00 | 0.00 | 80 | 1012.2 |
| 20260507233051 | 77 | 0 | 0.0 | 5.2 | 0.00 | 0.00 | 0.00 | 80 | 1012.3 |
| 20260507233033 | 77 | 89 | 0.0 | 3.5 | 0.00 | 0.00 | 0.00 | 81 | 1012.1 |
| 20260507232535 | 77 | 89 | 0.9 | 4.3 | 0.00 | 0.00 | 0.00 | 80 | 1012.2 |
| 20260507232036 | 78 | 293 | 0.0 | 5.2 | 0.00 | 0.00 | 0.00 | 80 | 1012.1 |
| 20260507231558 | 77 | 0 | 0.0 | 6.1 | 0.00 | 0.00 | 0.00 | 80 | 1012.2 |
| 20260507231536 | 78 | 219 | 0.0 | 6.1 | 0.00 | 0.00 | 0.00 | 80 | 1012.0 |
| 20260507231035 | 78 | 207 | 0.0 | 6.1 | 0.00 | 0.00 | 0.00 | 80 | 1012.0 |
| 20260507230535 | 78 | 272 | 0.0 | 1.7 | 0.00 | 0.00 | 0.00 | 80 | 1012.0 |
| 20260507230051 | 77 | 0 | 0.0 | 2.6 | 0.00 | 0.00 | 0.00 | 79 | 1012.3 |
| 20260507230035 | 78 | 3 | 0.0 | 1.7 | 0.00 | 0.00 | 0.00 | 80 | 1012.1 |
| 20260507225534 | 78 | 322 | 0.0 | 1.7 | 0.00 | 0.00 | 0.00 | 80 | 1012.1 |
| 20260507225016 | 78 | 59 | 0.0 | 2.6 | 0.00 | 0.00 | 0.00 | 80 | 1012.3 |
| 20260507224551 | 78 | 0 | 0.0 | 2.6 | 0.00 | 0.00 | 0.00 | 79 | 1012.7 |
| 20260507224510 | 78 | 166 | 0.0 | 2.6 | 0.00 | 0.00 | 0.00 | 79 | 1012.4 |
| 20260507224004 | 78 | 316 | 0.0 | 3.5 | 0.00 | 0.00 | 0.00 | 79 | 1012.7 |
| 20260507223740 | 78 | 243 | 0.0 | 3.5 | 0.00 | 0.00 | 0.00 | 79 | 1012.5 |
| 20260507223048 | 78 | 0 | 0.0 | 7.0 | 0.00 | 0.00 | 0.00 | 79 | 1012.7 |
| 20260507223004 | 78 | 127 | 0.0 | 6.1 | 0.00 | 0.00 | 0.00 | 79 | 1012.5 |
| 20260507222723 | 78 | 37 | 0.0 | 6.1 | 0.00 | 0.00 | 0.00 | 79 | 1012.6 |
| 20260507222003 | 79 | 252 | 0.9 | 4.3 | 0.00 | 0.00 | 0.00 | 78 | 1012.6 |
| 20260507221558 | 79 | 0 | 0.0 | 5.2 | 0.00 | 0.00 | 0.00 | 78 | 1012.8 |
| 20260507221502 | 79 | 267 | 0.9 | 4.3 | 0.00 | 0.00 | 0.00 | 78 | 1012.6 |
| 20260507221000 | 79 | 327 | 0.0 | 4.3 | 0.00 | 0.00 | 0.00 | 78 | 1012.5 |
| 20260507220501 | 80 | 138 | 0.0 | 3.5 | 0.00 | 0.00 | 0.00 | 78 | 1012.5 |
| 20260507220053 | 79 | 251 | 0.0 | 4.3 | 0.00 | 0.00 | 0.00 | 77 | 1012.8 |
| 20260507220000 | 80 | 253 | 0.0 | 4.3 | 0.00 | 0.00 | 0.00 | 77 | 1012.6 |
| 20260507215500 | 80 | 126 | 0.9 | 4.3 | 0.00 | 0.00 | 0.00 | 77 | 1012.6 |
| 20260507215003 | 81 | 283 | 0.0 | 3.5 | 0.00 | 0.00 | 0.00 | 76 | 1012.6 |
| 20260507214554 | 80 | 0 | 0.0 | 2.6 | 0.00 | 0.00 | 0.00 | 75 | 1012.9 |
| 20260507214503 | 81 | 328 | 0.9 | 3.5 | 0.00 | 0.00 | 0.00 | 75 | 1012.7 |
| 20260507214003 | 81 | 345 | 0.0 | 2.6 | 0.00 | 0.00 | 0.00 | 76 | 1012.8 |
| 20260507213502 | 82 | 305 | 0.0 | 3.5 | 0.00 | 0.00 | 0.00 | 74 | 1012.8 |
| 20260507213048 | 82 | 0 | 0.0 | 8.7 | 0.00 | 0.00 | 0.00 | 73 | 1012.8 |
| 20260507213002 | 82 | 27 | 0.0 | 7.0 | 0.00 | 0.00 | 0.00 | 74 | 1012.5 |
| 20260507212502 | 82 | 169 | 0.0 | 7.0 | 0.00 | 0.00 | 0.00 | 74 | 1012.5 |
| 20260507212003 | 82 | 25 | 0.0 | 4.3 | 0.00 | 0.00 | 0.00 | 74 | 1012.3 |
| 20260507211724 | 82 | 319 | 0.0 | 7.0 | 0.00 | 0.00 | 0.00 | 75 | 1012.4 |
| 20260507211558 | 81 | 0 | 0.0 | 7.0 | 0.00 | 0.00 | 0.00 | 75 | 1012.6 |
| 20260507211003 | 82 | 188 | 0.9 | 7.0 | 0.00 | 0.00 | 0.00 | 74 | 1012.3 |
| 20260507210515 | 82 | 144 | 0.9 | 6.1 | 0.00 | 0.00 | 0.00 | 74 | 1012.4 |
| 20260507210051 | 82 | 0 | 0.0 | 6.1 | 0.00 | 0.00 | 0.00 | 73 | 1012.5 |
| 20260507210000 | 83 | 265 | 0.9 | 5.2 | 0.00 | 0.00 | 0.00 | 74 | 1012.4 |
| 20260507205500 | 83 | 137 | 0.9 | 5.2 | 0.00 | 0.00 | 0.00 | 74 | 1012.4 |
| 20260507205002 | 82 | 181 | 1.7 | 5.2 | 0.00 | 0.00 | 0.00 | 73 | 1012.6 |
| 20260507204553 | 83 | 243 | 0.0 | 6.1 | 0.00 | 0.00 | 0.00 | 72 | 1012.8 |
| 20260507204501 | 83 | 46 | 0.0 | 7.0 | 0.00 | 0.00 | 0.00 | 73 | 1012.7 |
| 20260507204001 | 83 | 290 | 0.0 | 7.0 | 0.00 | 0.00 | 0.00 | 74 | 1012.9 |
| 20260507203756 | 83 | 149 | 0.0 | 5.2 | 0.00 | 0.00 | 0.00 | 74 | 1012.9 |
| 20260507203055 | 82 | 0 | 0.9 | 6.1 | 0.00 | 0.00 | 0.00 | 73 | 1013.2 |
| 20260507203001 | 83 | 215 | 0.9 | 7.0 | 0.00 | 0.00 | 0.00 | 74 | 1013.1 |
| 20260507202500 | 83 | 91 | 0.0 | 7.0 | 0.00 | 0.00 | 0.00 | 73 | 1013.1 |
| 20260507202002 | 83 | 239 | 0.0 | 6.1 | 0.00 | 0.00 | 0.00 | 74 | 1013.2 |
| 20260507201556 | 82 | 0 | 0.0 | 7.0 | 0.00 | 0.00 | 0.00 | 75 | 1013.5 |
| 20260507201503 | 82 | 219 | 0.9 | 6.1 | 0.00 | 0.00 | 0.00 | 75 | 1013.3 |
| 20260507201015 | 82 | 233 | 0.0 | 6.1 | 0.00 | 0.00 | 0.00 | 75 | 1013.5 |
| 20260507200516 | 82 | 171 | 0.9 | 6.1 | 0.00 | 0.00 | 0.00 | 75 | 1013.6 |
| 20260507200231 | 82 | 160 | 0.0 | 4.3 | 0.00 | 0.00 | 0.00 | 75 | 1013.5 |
| 20260507200053 | 81 | 0 | 0.0 | 4.3 | 0.00 | 0.00 | 0.00 | 75 | 1013.7 |
| 20260507195501 | 82 | 184 | 0.0 | 4.3 | 0.00 | 0.00 | 0.00 | 75 | 1013.6 |
| 20260507195001 | 82 | 271 | 0.0 | 5.2 | 0.00 | 0.00 | 0.00 | 77 | 1013.6 |
| 20260507194551 | 81 | 0 | 0.0 | 7.8 | 0.00 | 0.00 | 0.00 | 76 | 1013.9 |
| 20260507194502 | 81 | 181 | 0.0 | 5.2 | 0.00 | 0.00 | 0.00 | 77 | 1013.7 |
| 20260507194001 | 81 | 79 | 0.0 | 8.7 | 0.00 | 0.00 | 0.00 | 77 | 1013.7 |
| 20260507193501 | 81 | 129 | 0.0 | 8.7 | 0.00 | 0.00 | 0.00 | 78 | 1013.8 |
| 20260507193058 | 80 | 0 | 0.0 | 6.1 | 0.00 | 0.00 | 0.00 | 77 | 1014.2 |
| 20260507193001 | 81 | 346 | 0.0 | 6.1 | 0.00 | 0.00 | 0.00 | 77 | 1014.0 |
| 20260507192500 | 81 | 296 | 0.0 | 1.7 | 0.00 | 0.00 | 0.00 | 77 | 1014.1 |
| 20260507191959 | 81 | 231 | 0.0 | 3.5 | 0.00 | 0.00 | 0.00 | 76 | 1014.0 |
| 20260507191723 | 81 | 295 | 0.0 | 3.5 | 0.00 | 0.00 | 0.00 | 77 | 1014.1 |
| 20260507191552 | 81 | 0 | 0.0 | 3.5 | 0.00 | 0.00 | 0.00 | 77 | 1014.2 |
| 20260507190957 | 81 | 311 | 0.0 | 3.5 | 0.00 | 0.00 | 0.00 | 76 | 1014.0 |
| 20260507190456 | 81 | 242 | 0.0 | 4.3 | 0.00 | 0.00 | 0.00 | 77 | 1014.2 |
| 20260507190047 | 81 | 0 | 0.9 | 6.1 | 0.00 | 0.00 | 0.00 | 77 | 1014.4 |
| 20260507185956 | 81 | 105 | 1.7 | 5.2 | 0.00 | 0.00 | 0.00 | 77 | 1014.3 |
| 20260507185455 | 81 | 3 | 0.0 | 5.2 | 0.00 | 0.00 | 0.00 | 76 | 1014.3 |
| 20260507184956 | 81 | 221 | 0.0 | 5.2 | 0.00 | 0.00 | 0.00 | 77 | 1014.3 |
| 20260507184550 | 80 | 0 | 0.0 | 6.1 | 0.00 | 0.00 | 0.00 | 77 | 1014.5 |
| 20260507184449 | 81 | 25 | 0.0 | 6.1 | 0.00 | 0.00 | 0.00 | 79 | 1014.3 |
| 20260507183948 | 80 | 162 | 1.7 | 7.0 | 0.00 | 0.00 | 0.00 | 78 | 1014.4 |
| 20260507183447 | 80 | 191 | 0.0 | 7.0 | 0.00 | 0.00 | 0.00 | 79 | 1014.3 |
| 20260507183100 | 79 | 0 | 0.0 | 3.5 | 0.00 | 0.00 | 0.00 | 80 | 1014.7 |
| 20260507182940 | 80 | 212 | 0.0 | 3.5 | 0.00 | 0.00 | 0.00 | 80 | 1014.6 |
| 20260507182439 | 78 | 331 | 0.0 | 4.3 | 0.00 | 0.00 | 0.00 | 82 | 1014.9 |
| 20260507181940 | 78 | 194 | 0.0 | 7.0 | 0.00 | 0.00 | 0.00 | 81 | 1014.9 |
| 20260507181931 | 78 | 260 | 0.0 | 7.0 | 0.00 | 0.00 | 0.00 | 82 | 1014.9 |
| 20260507181553 | 77 | 184 | 0.0 | 6.1 | 0.00 | 0.00 | 0.00 | 82 | 1015.2 |
| 20260507180938 | 78 | 296 | 0.0 | 5.2 | 0.00 | 0.00 | 0.00 | 82 | 1014.9 |
| 20260507180433 | 78 | 191 | 0.0 | 5.2 | 0.00 | 0.00 | 0.00 | 83 | 1015.0 |
| 20260507180105 | 77 | 0 | 0.0 | 5.2 | 0.00 | 0.00 | 0.00 | 82 | 1015.3 |
| 20260507175933 | 77 | 257 | 0.9 | 5.2 | 0.00 | 0.00 | 0.00 | 83 | 1015.0 |
| 20260507175655 | 77 | 124 | 0.0 | 4.3 | 0.00 | 0.00 | 0.00 | 83 | 1015.1 |
| 20260507174931 | 77 | 124 | 0.0 | 3.5 | 0.00 | 0.00 | 0.00 | 83 | 1015.2 |
| 20260507174617 | 77 | 0 | 0.0 | 2.6 | 0.00 | 0.00 | 0.00 | 82 | 1015.3 |
| 20260507174431 | 77 | 40 | 0.0 | 3.5 | 0.00 | 0.00 | 0.00 | 83 | 1015.2 |
| 20260507173925 | 78 | 84 | 0.0 | 5.2 | 0.00 | 0.00 | 0.00 | 82 | 1015.3 |
| 20260507173424 | 78 | 252 | 0.0 | 5.2 | 0.00 | 0.00 | 0.00 | 82 | 1015.2 |
| 20260507173048 | 78 | 0 | 0.0 | 4.3 | 0.00 | 0.00 | 0.00 | 81 | 1015.5 |
| 20260507172917 | 78 | 198 | 0.0 | 2.6 | 0.00 | 0.00 | 0.00 | 82 | 1015.1 |
| 20260507172418 | 79 | 73 | 0.0 | 3.5 | 0.00 | 0.00 | 0.00 | 81 | 1015.1 |
| 20260507171903 | 79 | 325 | 0.0 | 6.1 | 0.00 | 0.00 | 0.00 | 81 | 1015.3 |
| 20260507171609 | 78 | 325 | 0.9 | 7.8 | 0.00 | 0.00 | 0.00 | 80 | 1015.4 |
| 20260507171402 | 79 | 118 | 0.9 | 8.7 | 0.00 | 0.00 | 0.00 | 81 | 1015.2 |
| 20260507170902 | 79 | 117 | 0.0 | 8.7 | 0.00 | 0.00 | 0.00 | 80 | 1015.1 |
| 20260507170402 | 79 | 259 | 0.0 | 3.5 | 0.00 | 0.00 | 0.00 | 81 | 1015.0 |
| 20260507170052 | 78 | 0 | 0.0 | 7.0 | 0.00 | 0.00 | 0.00 | 81 | 1015.4 |
| 20260507165902 | 79 | 89 | 0.0 | 7.0 | 0.00 | 0.00 | 0.00 | 81 | 1015.3 |
| 20260507165400 | 79 | 242 | 0.0 | 7.0 | 0.00 | 0.00 | 0.00 | 81 | 1015.3 |
| 20260507164901 | 79 | 15 | 0.0 | 5.2 | 0.00 | 0.00 | 0.00 | 81 | 1015.3 |
| 20260507164556 | 78 | 0 | 0.0 | 5.2 | 0.00 | 0.00 | 0.00 | 80 | 1015.4 |
| 20260507164401 | 78 | 213 | 0.0 | 3.5 | 0.00 | 0.00 | 0.00 | 82 | 1015.2 |
| 20260507163901 | 78 | 125 | 0.0 | 0.9 | 0.00 | 0.00 | 0.00 | 82 | 1015.2 |
| 20260507163400 | 78 | 125 | 0.0 | 0.9 | 0.00 | 0.00 | 0.00 | 83 | 1015.2 |
| 20260507163059 | 77 | 0 | 0.0 | 3.5 | 0.00 | 0.00 | 0.00 | 83 | 1015.4 |
| 20260507162902 | 77 | 222 | 0.0 | 2.6 | 0.00 | 0.00 | 0.00 | 83 | 1015.3 |
| 20260507162400 | 77 | 118 | 0.0 | 2.6 | 0.00 | 0.00 | 0.00 | 83 | 1015.2 |
| 20260507161901 | 77 | 301 | 0.0 | 2.6 | 0.00 | 0.00 | 0.00 | 84 | 1015.1 |
| 20260507161555 | 76 | 0 | 0.0 | 1.7 | 0.00 | 0.00 | 0.00 | 84 | 1015.3 |
| 20260507161401 | 76 | 6 | 0.0 | 2.6 | 0.00 | 0.00 | 0.00 | 84 | 1015.1 |
| 20260507160901 | 76 | 173 | 0.0 | 4.3 | 0.00 | 0.00 | 0.00 | 85 | 1015.1 |
| 20260507160400 | 75 | 173 | 0.0 | 4.3 | 0.00 | 0.00 | 0.00 | 86 | 1015.1 |
| 20260507160112 | 75 | 9 | 0.0 | 4.3 | 0.00 | 0.00 | 0.00 | 85 | 1015.3 |
| 20260507155900 | 75 | 22 | 0.0 | 3.5 | 0.00 | 0.00 | 0.00 | 86 | 1015.1 |
| 20260507155400 | 75 | 39 | 0.0 | 1.7 | 0.00 | 0.00 | 0.00 | 86 | 1015.2 |
| 20260507154900 | 75 | 288 | 0.0 | 1.7 | 0.00 | 0.00 | 0.00 | 86 | 1015.1 |
| 20260507154626 | 75 | 287 | 0.0 | 0.9 | 0.00 | 0.00 | 0.00 | 86 | 1015.1 |
| 20260507154555 | 74 | 0 | 0.0 | 0.9 | 0.00 | 0.00 | 0.00 | 86 | 1015.2 |
| 20260507153903 | 75 | 334 | 0.0 | 2.6 | 0.00 | 0.00 | 0.00 | 87 | 1015.1 |
| 20260507153402 | 75 | 248 | 0.0 | 2.6 | 0.00 | 0.00 | 0.00 | 87 | 1015.0 |
| 20260507153055 | 74 | 0 | 0.0 | 0.0 | 0.00 | 0.00 | 0.00 | 87 | 1015.2 |
| 20260507152902 | 75 | 202 | 0.0 | 0.0 | 0.00 | 0.00 | 0.00 | 87 | 1014.9 |
| 20260507152402 | 75 | 202 | 0.0 | 0.0 | 0.00 | 0.00 | 0.00 | 88 | 1015.0 |
| 20260507151901 | 75 | 295 | 0.0 | 2.6 | 0.00 | 0.00 | 0.00 | 88 | 1014.9 |
| 20260507151558 | 74 | 0 | 0.0 | 1.7 | 0.00 | 0.00 | 0.00 | 88 | 1015.0 |
| 20260507151401 | 75 | 295 | 0.0 | 2.6 | 0.00 | 0.00 | 0.00 | 89 | 1014.9 |
| 20260507151122 | 74 | 190 | 0.0 | 0.0 | 0.00 | 0.00 | 0.00 | 89 | 1014.8 |
| 20260507150401 | 74 | 190 | 0.0 | 0.0 | 0.00 | 0.00 | 0.00 | 89 | 1014.8 |
| 20260507150053 | 74 | 0 | 0.0 | 0.9 | 0.00 | 0.00 | 0.00 | 88 | 1015.0 |
| 20260507145901 | 74 | 190 | 0.0 | 0.0 | 0.00 | 0.00 | 0.00 | 89 | 1014.8 |
| 20260507145400 | 74 | 190 | 0.0 | 0.9 | 0.00 | 0.00 | 0.00 | 89 | 1014.7 |
| 20260507144900 | 74 | 190 | 0.0 | 0.9 | 0.00 | 0.00 | 0.00 | 90 | 1014.7 |
| 20260507144548 | 74 | 0 | 0.0 | 4.3 | 0.00 | 0.00 | 0.00 | 89 | 1014.8 |
| 20260507144401 | 74 | 158 | 0.0 | 3.5 | 0.00 | 0.00 | 0.00 | 90 | 1014.7 |
| 20260507143902 | 74 | 176 | 0.0 | 3.5 | 0.00 | 0.00 | 0.00 | 90 | 1014.5 |
| 20260507143402 | 74 | 15 | 0.0 | 2.6 | 0.00 | 0.00 | 0.00 | 90 | 1014.4 |
| 20260507143105 | 74 | 0 | 0.0 | 2.6 | 0.00 | 0.00 | 0.00 | 90 | 1014.6 |
| 20260507142902 | 75 | 219 | 0.0 | 2.6 | 0.00 | 0.00 | 0.00 | 90 | 1014.5 |
| 20260507142627 | 75 | 18 | 0.0 | 0.0 | 0.00 | 0.00 | 0.00 | 90 | 1014.4 |
| 20260507142125 | 75 | 18 | 0.0 | 0.0 | 0.00 | 0.00 | 0.00 | 89 | 1014.4 |
| 20260507141849 | 75 | 18 | 0.0 | 0.9 | 0.00 | 0.00 | 0.00 | 89 | 1014.5 |
| 20260507141633 | 75 | 0 | 0.0 | 0.9 | 0.00 | 0.00 | 0.00 | 89 | 1014.6 |
| 20260507140903 | 75 | 18 | 0.0 | 1.7 | 0.00 | 0.00 | 0.00 | 89 | 1014.3 |
| 20260507140630 | 75 | 139 | 0.0 | 1.7 | 0.00 | 0.00 | 0.00 | 89 | 1014.2 |
| 20260507140110 | 75 | 0 | 0.0 | 0.9 | 0.00 | 0.00 | 0.00 | 88 | 1014.4 |
| 20260507135902 | 76 | 147 | 0.0 | 0.0 | 0.00 | 0.00 | 0.00 | 89 | 1014.2 |
| 20260507135624 | 76 | 147 | 0.0 | 0.0 | 0.00 | 0.00 | 0.00 | 89 | 1014.1 |
| 20260507134900 | 76 | 147 | 0.0 | 0.0 | 0.00 | 0.00 | 0.00 | 89 | 1013.9 |
| 20260507134629 | 76 | 147 | 0.0 | 0.0 | 0.00 | 0.00 | 0.00 | 89 | 1013.8 |
| 20260507134555 | 75 | 0 | 0.0 | 0.0 | 0.00 | 0.00 | 0.00 | 88 | 1014.0 |
| 20260507133901 | 76 | 147 | 0.0 | 0.0 | 0.00 | 0.00 | 0.00 | 88 | 1013.7 |
| 20260507133401 | 76 | 189 | 0.0 | 0.0 | 0.00 | 0.00 | 0.00 | 88 | 1013.5 |
| 20260507133125 | 76 | 189 | 0.0 | 0.0 | 0.00 | 0.00 | 0.00 | 88 | 1013.4 |
| 20260507133103 | 76 | 0 | 0.0 | 0.0 | 0.00 | 0.00 | 0.00 | 87 | 1013.7 |
| 20260507132401 | 77 | 293 | 0.0 | 1.7 | 0.00 | 0.00 | 0.00 | 87 | 1013.3 |
| 20260507131900 | 78 | 293 | 0.0 | 2.6 | 0.00 | 0.00 | 0.00 | 85 | 1013.1 |
| 20260507131612 | 78 | 0 | 0.0 | 2.6 | 0.00 | 0.00 | 0.00 | 84 | 1013.4 |
| 20260507131401 | 80 | 342 | 0.0 | 2.6 | 0.00 | 0.00 | 0.00 | 84 | 1013.1 |
| 20260507130901 | 81 | 9 | 0.0 | 0.0 | 0.00 | 0.00 | 0.00 | 88 | 1012.9 |
| 20260507130401 | 81 | 9 | 0.0 | 0.0 | 0.00 | 0.00 | 0.00 | 89 | 1012.8 |
| 20260507130106 | 80 | 0 | 0.0 | 0.9 | 0.00 | 0.00 | 0.00 | 88 | 1012.9 |
| 20260507125900 | 81 | 9 | 0.0 | 0.0 | 0.00 | 0.00 | 0.00 | 89 | 1012.6 |
| 20260507125402 | 81 | 315 | 0.0 | 0.0 | 0.00 | 0.00 | 0.00 | 89 | 1012.4 |
| 20260507124900 | 81 | 315 | 0.0 | 0.0 | 0.00 | 0.00 | 0.00 | 89 | 1012.6 |
| 20260507124601 | 80 | 0 | 0.0 | 0.0 | 0.00 | 0.00 | 0.00 | 89 | 1012.7 |
| 20260507124402 | 80 | 315 | 0.0 | 0.9 | 0.00 | 0.00 | 0.00 | 89 | 1012.5 |
| 20260507123901 | 80 | 315 | 0.0 | 0.9 | 0.00 | 0.00 | 0.00 | 89 | 1012.4 |
| 20260507123403 | 80 | 281 | 0.0 | 0.0 | 0.00 | 0.00 | 0.00 | 90 | 1012.3 |
| 20260507123051 | 80 | 0 | 0.0 | 0.0 | 0.00 | 0.00 | 0.00 | 89 | 1012.6 |
| 20260507122902 | 81 | 281 | 0.0 | 0.0 | 0.00 | 0.00 | 0.00 | 89 | 1012.4 |
| 20260507122402 | 81 | 281 | 0.0 | 0.0 | 0.00 | 0.00 | 0.00 | 89 | 1012.4 |
| 20260507121901 | 81 | 281 | 0.0 | 0.0 | 0.00 | 0.00 | 0.00 | 89 | 1012.2 |
| 20260507121556 | 80 | 0 | 0.0 | 0.0 | 0.00 | 0.00 | 0.00 | 89 | 1012.4 |
| 20260507121401 | 81 | 281 | 0.0 | 0.0 | 0.00 | 0.00 | 0.00 | 89 | 1012.2 |
| 20260507121125 | 81 | 281 | 0.0 | 0.0 | 0.00 | 0.00 | 0.00 | 89 | 1012.3 |
| 20260507120401 | 81 | 281 | 0.0 | 0.0 | 0.00 | 0.00 | 0.00 | 89 | 1012.3 |
| 20260507120058 | 80 | 0 | 0.0 | 0.0 | 0.00 | 0.00 | 0.00 | 88 | 1012.4 |
| 20260507115902 | 81 | 281 | 0.0 | 0.0 | 0.00 | 0.00 | 0.00 | 89 | 1012.3 |
| 20260507115402 | 81 | 281 | 0.0 | 0.0 | 0.00 | 0.00 | 0.00 | 89 | 1012.0 |
| 20260507114901 | 81 | 281 | 0.0 | 0.0 | 0.00 | 0.00 | 0.00 | 89 | 1012.0 |
| 20260507114552 | 80 | 0 | 0.0 | 0.0 | 0.00 | 0.00 | 0.00 | 88 | 1012.2 |
| 20260507114402 | 81 | 281 | 0.0 | 0.0 | 0.00 | 0.00 | 0.00 | 89 | 1012.0 |
| 20260507113901 | 81 | 281 | 0.0 | 0.0 | 0.00 | 0.00 | 0.00 | 89 | 1011.9 |
| 20260507113843 | 81 | 281 | 0.0 | 0.0 | 0.00 | 0.00 | 0.00 | 89 | 1011.9 |
| 20260507113122 | 81 | 0 | 0.0 | 0.0 | 0.00 | 0.00 | 0.00 | 88 | 1011.8 |
| 20260507112903 | 81 | 281 | 0.0 | 0.0 | 0.00 | 0.00 | 0.00 | 89 | 1011.7 |
| 20260507112403 | 81 | 281 | 0.0 | 0.0 | 0.00 | 0.00 | 0.00 | 89 | 1011.7 |
| 20260507112123 | 81 | 281 | 0.0 | 0.0 | 0.00 | 0.00 | 0.00 | 89 | 1011.8 |
| 20260507111557 | 81 | 0 | 0.0 | 0.0 | 0.00 | 0.00 | 0.00 | 88 | 1012.1 |